Location: Hamburg
(53.5500°N, 10.0000°E)
Time: 15:25:54
(UTC+01:00)

A-11 Canister half - All Passes

Search period start: 18 December 2014 00:00
Search period end: 28 December 2014 00:00
Orbit: 1525 x 1685 km, 47.3° (Epoch: 16 December)

Date Brightness Start Highest point End Pass type
(mag) Time Alt. Az. Time Alt. Az. Time Alt. Az.
18 Dec - 01:39:16 10° W 01:48:08 36° SW 01:56:53 10° SSE night (unlit)
18 Dec - 03:47:05 10° W 03:50:46 13° WSW 03:54:26 10° SW night (unlit)
18 Dec - 17:09:42 10° SE 17:11:54 11° ESE 17:14:07 10° ESE visible
18 Dec - 19:05:49 10° SSW 19:14:24 34° SE 19:23:06 10° E visible
18 Dec - 21:08:28 10° WSW 21:18:14 58° SSE 21:28:04 10° E visible
18 Dec - 23:12:48 10° W 23:22:41 59° S 23:32:30 10° ESE visible
19 Dec - 01:17:41 10° W 01:26:39 37° SW 01:35:29 10° SSE night (unlit)
19 Dec - 03:25:05 10° W 03:29:20 14° SW 03:33:34 10° SSW night (unlit)
19 Dec - 18:44:27 10° SSW 18:52:55 33° SE 19:01:30 10° E visible
19 Dec - 20:46:58 10° WSW 20:56:42 57° SSE 21:06:31 10° E visible
19 Dec - 22:51:15 10° W 23:01:08 60° S 23:10:59 10° ESE visible
20 Dec - 00:56:06 10° W 01:05:09 39° SSW 01:14:05 10° SSE night (unlit)
20 Dec - 03:03:10 10° W 03:07:54 14° SW 03:12:37 10° SSW night (unlit)
20 Dec - 18:23:05 10° SSW 18:31:25 32° SE 18:39:54 10° E visible
20 Dec - 20:25:28 10° WSW 20:35:09 56° SSE 20:44:58 10° E visible
20 Dec - 22:29:42 10° W 22:39:35 60° S 22:49:28 10° ESE visible
21 Dec - 00:34:31 10° W 00:43:38 40° SSW 00:52:40 10° SSE night (unlit)
21 Dec - 02:41:19 10° W 02:46:28 15° SW 02:51:36 10° SSW night (unlit)
21 Dec - 18:01:44 10° SSW 18:09:57 31° SE 18:18:17 10° E visible
21 Dec - 20:03:58 10° WSW 20:13:37 55° SSE 20:23:24 10° E visible
21 Dec - 22:08:09 10° W 22:18:02 61° S 22:27:56 10° ESE visible
22 Dec - 00:12:56 10° W 00:22:08 41° SSW 00:31:15 10° SE visible
22 Dec - 02:19:30 10° W 02:25:02 16° SW 02:30:32 10° SSW night (unlit)
22 Dec - 17:40:24 10° SSW 17:48:28 29° SE 17:56:40 10° E visible
22 Dec - 19:42:28 10° SW 19:52:05 54° SSE 20:01:51 10° E visible
22 Dec - 21:46:37 10° W 21:56:29 61° S 22:06:24 10° ESE visible
22 Dec - 23:51:22 10° W 00:00:37 42° SSW 00:09:49 10° SE visible
23 Dec - 01:57:43 10° W 02:03:35 17° SW 02:09:25 10° SSW night (unlit)
23 Dec - 17:19:05 10° SSW 17:26:59 28° SE 17:35:03 10° E visible
23 Dec - 19:20:59 10° SW 19:30:33 53° SSE 19:40:17 10° E visible
23 Dec - 21:25:05 10° W 21:34:57 62° S 21:44:52 10° ESE visible
23 Dec - 23:29:48 10° W 23:39:06 43° SSW 23:48:22 10° SE visible
24 Dec - 01:35:58 10° W 01:42:09 18° SW 01:48:17 10° SSW night (unlit)
24 Dec - 16:57:46 10° S 17:05:31 27° SE 17:13:25 10° E visible
24 Dec - 18:59:31 10° SW 19:09:01 52° SSE 19:18:43 10° E visible
24 Dec - 21:03:32 10° W 21:13:24 62° S 21:23:20 10° ESE visible
24 Dec - 23:08:14 10° W 23:17:36 44° SSW 23:26:55 10° SE visible
25 Dec - 01:14:15 10° W 01:20:42 19° SW 01:27:07 10° S night (unlit)
25 Dec - 16:36:28 10° S 16:44:03 26° SE 16:51:46 10° E visible
25 Dec - 18:38:02 10° SW 18:47:30 51° SSE 18:57:09 10° E visible
25 Dec - 20:42:00 10° W 20:51:51 62° S 21:01:47 10° ESE visible
25 Dec - 22:46:40 10° W 22:56:04 46° SSW 23:05:28 10° SE visible
26 Dec - 00:52:32 10° W 00:59:14 20° SW 01:05:55 10° S night (unlit)
26 Dec - 16:15:11 10° S 16:22:35 25° SE 16:30:08 10° E daylight
26 Dec - 18:16:34 10° SW 18:25:58 50° SSE 18:35:35 10° E visible
26 Dec - 20:20:28 10° W 20:30:18 62° S 20:40:15 10° ESE visible
26 Dec - 22:25:07 10° W 22:34:33 47° SSW 22:44:00 10° SE visible
27 Dec - 00:30:51 10° W 00:37:47 21° SW 00:44:41 10° S visible
27 Dec - 15:53:55 10° S 16:01:08 24° SE 16:08:28 10° E daylight
27 Dec - 17:55:06 10° SW 18:04:27 49° SSE 18:14:01 10° E visible
27 Dec - 19:58:57 10° WSW 20:08:45 62° S 20:18:42 10° ESE visible
27 Dec - 22:03:34 10° W 22:13:02 48° SSW 22:22:32 10° SE visible
